Regional Weather Roundup
Issued by NWS Charleston, WV

Home | Current Version | Previous Version | Graphics & Text | Print | Product List | Glossary On
Versions: 1 2 3 4 5 6 7 8 9 10 11 12 13 14 15 16 17 18 19 20 21 22 23 24 25 26 27 28 29 30 31 32 33 34 35 36 37 38 39 40 41 42 43 44 45 46 47 48 49 50
768
ASUS41 KRLX 120310
RWRRLX
West Virginia Regional Weather Roundup
National Weather Service Charleston WV
1000 PM EST THU FEB 11 2016

Note: "fair" indicates few or no clouds below 12,000 feet with no
significant weather and/or obstructions to visibility.

WVZ003-120400-
Northern Panhandle of West Virginia

CITY           SKY/WX    TMP DP  RH WIND       PRES   REMARKS
WHEELING         N/A     13   1  59 CALM      30.26S
$$

WVZ009-120400-
Northwest West Virginia

CITY           SKY/WX    TMP DP  RH WIND       PRES   REMARKS
PARKERSBURG      N/A     12   7  80 CALM      30.33S
$$

WVZ006-120400-
Western West Virginia

CITY           SKY/WX    TMP DP  RH WIND       PRES   REMARKS
HUNTINGTON       N/A     20   5  52 NE6       30.31S
$$

WVZ015-120400-
West Central West Virginia

CITY           SKY/WX    TMP DP  RH WIND       PRES   REMARKS
CHARLESTON       N/A     17   8  67 NE3       30.29F
$$

WVZ022-031-120400-
North Central West Virginia

CITY           SKY/WX    TMP DP  RH WIND       PRES   REMARKS
CLARKSBURG       N/A     10   4  76 CALM      30.27S
MORGANTOWN       N/A     11   1  64 CALM      30.27S
$$

WVZ025-035-042-045-120400-
Southern West Virginia

CITY           SKY/WX    TMP DP  RH WIND       PRES   REMARKS
BECKLEY          N/A     13   2  61 CALM      30.17S
LOGAN            N/A     19   5  53 CALM      30.23S
BLUEFIELD        N/A     15   4  61 W5        30.15S WCI   8
LEWISBURG        N/A     13   3  66 CALM      30.19S
$$

WVZ047-120400-
Northern Mountains of West Virginia

CITY           SKY/WX    TMP DP  RH WIND       PRES   REMARKS
ELKINS         CLOUDY    13   1  59 CALM      30.21F
$$

WVZ052-120400-
Eastern Panhandle of West Virginia

CITY           SKY/WX    TMP DP  RH WIND       PRES   REMARKS
MARTINSBURG      N/A     19   0  43 NW9       30.29R WCI   8
PETERSBURG       N/A     17   4  56 CALM      30.29S
$$




USA.gov is the U.S. government's official web portal to all federal, state and local government web resources and services.